owner,sensor,date,latitude,longitude,air_pressure(mBar),qcFlag 
ADCP,ioos:station:wmo:42390:1,2013-08-01T00:30:00Z,26.1290,-94.8980,9999.0,11144222 
ADCP,ioos:station:wmo:42390:1,2013-08-01T01:30:00Z,26.1290,-94.8980,9999.0,11144222 
ADCP,ioos:station:wmo:42390:1,2013-08-01T02:30:00Z,26.1290,-94.8980,9999.0,11144222 
ADCP,ioos:station:wmo:42390:1,2013-08-01T03:30:00Z,26.1290,-94.8980,9999.0,11144222 
ADCP,ioos:station:wmo:42390:1,2013-08-01T04:30:00Z,26.1290,-94.8980,9999.0,11144222 
ADCP,ioos:station:wmo:42390:1,2013-08-01T05:30:00Z,26.1290,-94.8980,9999.0,11144222 
ADCP,ioos:station:wmo:42390:1,2013-08-01T06:30:00Z,26.1290,-94.8980,9999.0,11144222 
ADCP,ioos:station:wmo:42390:1,2013-08-01T07:30:00Z,26.1290,-94.8980,9999.0,11144222 
ADCP,ioos:station:wmo:42390:1,2013-08-01T08:30:00Z,26.1290,-94.8980,9999.0,11144222 
ADCP,ioos:station:wmo:42390:1,2013-08-01T09:30:00Z,26.1290,-94.8980,9999.0,11144222 
ADCP,ioos:station:wmo:42390:1,2013-08-01T10:30:00Z,26.1290,-94.8980,9999.0,11144222 
ADCP,ioos:station:wmo:42390:1,2013-08-01T11:30:00Z,26.1290,-94.8980,9999.0,11144222 
ADCP,ioos:station:wmo:42390:1,2013-08-01T12:30:00Z,26.1290,-94.8980,9999.0,11144222 
ADCP,ioos:station:wmo:42390:1,2013-08-01T13:30:00Z,26.1290,-94.8980,9999.0,11144222 
ADCP,ioos:station:wmo:42390:1,2013-08-01T14:30:00Z,26.1290,-94.8980,9999.0,11144222 
ADCP,ioos:station:wmo:42390:1,2013-08-05T15:30:00Z,26.1290,-94.8980,9999.0,11144222 
ADCP,ioos:station:wmo:42390:1,2013-08-05T16:30:00Z,26.1290,-94.8980,9999.0,11144222 
ADCP,ioos:station:wmo:42390:1,2013-08-05T17:30:00Z,26.1290,-94.8980,9999.0,11144222 
ADCP,ioos:station:wmo:42390:1,2013-08-05T18:30:00Z,26.1290,-94.8980,9999.0,11144222 
ADCP,ioos:station:wmo:42390:1,2013-08-05T19:30:00Z,26.1290,-94.8980,9999.0,11144222 
ADCP,ioos:station:wmo:42390:1,2013-08-05T20:30:00Z,26.1290,-94.8980,9999.0,11144222 
ADCP,ioos:station:wmo:42390:1,2013-08-05T21:30:00Z,26.1290,-94.8980,9999.0,11144222 
ADCP,ioos:station:wmo:42390:1,2013-08-05T22:30:00Z,26.1290,-94.8980,9999.0,11144222 
ADCP,ioos:station:wmo:42390:1,2013-08-05T23:30:00Z,26.1290,-94.8980,9999.0,11144222 
ADCP,ioos:station:wmo:42390:1,2013-08-06T00:30:00Z,26.1290,-94.8980,9999.0,11144222 
ADCP,ioos:station:wmo:42390:1,2013-08-06T01:30:00Z,26.1290,-94.8980,9999.0,11144222 
ADCP,ioos:station:wmo:42390:1,2013-08-06T02:30:00Z,26.1290,-94.8980,9999.0,11144222 
ADCP,ioos:station:wmo:42390:1,2013-08-06T03:30:00Z,26.1290,-94.8980,9999.0,11144222 
ADCP,ioos:station:wmo:42390:1,2013-08-06T04:30:00Z,26.1290,-94.8980,9999.0,11144222 
ADCP,ioos:station:wmo:42390:1,2013-08-06T05:30:00Z,26.1290,-94.8980,9999.0,11144222 
ADCP,ioos:station:wmo:42390:1,2013-08-06T06:30:00Z,26.1290,-94.8980,9999.0,11144222 
ADCP,ioos:station:wmo:42390:1,2013-08-06T07:30:00Z,26.1290,-94.8980,9999.0,11144222 
ADCP,ioos:station:wmo:42390:1,2013-08-06T08:30:00Z,26.1290,-94.8980,9999.0,11144222 
ADCP,ioos:station:wmo:42390:1,2013-08-06T09:30:00Z,26.1290,-94.8980,9999.0,11144222 
ADCP,ioos:station:wmo:42390:1,2013-08-06T10:30:00Z,26.1290,-94.8980,9999.0,11144222 
ADCP,ioos:station:wmo:42390:1,2013-08-06T11:30:00Z,26.1290,-94.8980,9999.0,11144222 
ADCP,ioos:station:wmo:42390:1,2013-08-06T12:30:00Z,26.1290,-94.8980,9999.0,11144222 
ADCP,ioos:station:wmo:42390:1,2013-08-06T13:30:00Z,26.1290,-94.8980,9999.0,11144222 
ADCP,ioos:station:wmo:42390:1,2013-08-06T14:30:00Z,26.1290,-94.8980,9999.0,11144222 
ADCP,ioos:station:wmo:42390:1,2013-08-06T15:30:00Z,26.1290,-94.8980,9999.0,11144222 
ADCP,ioos:station:wmo:42390:1,2013-08-06T16:30:00Z,26.1290,-94.8980,9999.0,11144222 
ADCP,ioos:station:wmo:42390:1,2013-08-06T17:30:00Z,26.1290,-94.8980,9999.0,11144222 
ADCP,ioos:station:wmo:42390:1,2013-08-06T18:30:00Z,26.1290,-94.8980,9999.0,11144222 
ADCP,ioos:station:wmo:42390:1,2013-08-06T19:30:00Z,26.1290,-94.8980,9999.0,11144222 
ADCP,ioos:station:wmo:42390:1,2013-08-06T20:30:00Z,26.1290,-94.8980,9999.0,11144222 
ADCP,ioos:station:wmo:42390:1,2013-08-06T21:30:00Z,26.1290,-94.8980,9999.0,11144222 
ADCP,ioos:station:wmo:42390:1,2013-08-06T22:30:00Z,26.1290,-94.8980,9999.0,11144222 
ADCP,ioos:station:wmo:42390:1,2013-08-06T23:30:00Z,26.1290,-94.8980,9999.0,11144222 
ADCP,ioos:station:wmo:42390:1,2013-08-07T00:30:00Z,26.1290,-94.8980,9999.0,11144222 
ADCP,ioos:station:wmo:42390:1,2013-08-07T01:30:00Z,26.1290,-94.8980,9999.0,11144222 
ADCP,ioos:station:wmo:42390:1,2013-08-07T02:30:00Z,26.1290,-94.8980,9999.0,11144222 
ADCP,ioos:station:wmo:42390:1,2013-08-07T03:30:00Z,26.1290,-94.8980,9999.0,11144222 
ADCP,ioos:station:wmo:42390:1,2013-08-07T04:30:00Z,26.1290,-94.8980,9999.0,11144222 
ADCP,ioos:station:wmo:42390:1,2013-08-07T05:30:00Z,26.1290,-94.8980,9999.0,11144222 
ADCP,ioos:station:wmo:42390:1,2013-08-07T06:30:00Z,26.1290,-94.8980,9999.0,11144222 
ADCP,ioos:station:wmo:42390:1,2013-08-07T07:30:00Z,26.1290,-94.8980,9999.0,11144222 
ADCP,ioos:station:wmo:42390:1,2013-08-07T08:30:00Z,26.1290,-94.8980,9999.0,11144222 
ADCP,ioos:station:wmo:42390:1,2013-08-07T09:30:00Z,26.1290,-94.8980,9999.0,11144222 
ADCP,ioos:station:wmo:42390:1,2013-08-07T10:30:00Z,26.1290,-94.8980,9999.0,11144222 
ADCP,ioos:station:wmo:42390:1,2013-08-07T11:30:00Z,26.1290,-94.8980,9999.0,11144222 
ADCP,ioos:station:wmo:42390:1,2013-08-07T12:30:00Z,26.1290,-94.8980,9999.0,11144222 
ADCP,ioos:station:wmo:42390:1,2013-08-07T13:30:00Z,26.1290,-94.8980,9999.0,11144222 
ADCP,ioos:station:wmo:42390:1,2013-08-07T14:30:00Z,26.1290,-94.8980,9999.0,11144222 
ADCP,ioos:station:wmo:42390:1,2013-08-07T15:30:00Z,26.1290,-94.8980,9999.0,11144222 
ADCP,ioos:station:wmo:42390:1,2013-08-07T16:30:00Z,26.1290,-94.8980,9999.0,11144222 
ADCP,ioos:station:wmo:42390:1,2013-08-07T17:30:00Z,26.1290,-94.8980,9999.0,11144222 
ADCP,ioos:station:wmo:42390:1,2013-08-07T18:30:00Z,26.1290,-94.8980,9999.0,11144222 
ADCP,ioos:station:wmo:42390:1,2013-08-07T19:30:00Z,26.1290,-94.8980,9999.0,11144222 
ADCP,ioos:station:wmo:42390:1,2013-08-07T20:30:00Z,26.1290,-94.8980,9999.0,11144222 
ADCP,ioos:station:wmo:42390:1,2013-08-07T21:30:00Z,26.1290,-94.8980,9999.0,11144222 
ADCP,ioos:station:wmo:42390:1,2013-08-07T22:30:00Z,26.1290,-94.8980,9999.0,11144222 
ADCP,ioos:station:wmo:42390:1,2013-08-07T23:30:00Z,26.1290,-94.8980,9999.0,11144222 
ADCP,ioos:station:wmo:42390:1,2013-08-08T00:30:00Z,26.1290,-94.8980,9999.0,11144222 
ADCP,ioos:station:wmo:42390:1,2013-08-08T01:30:00Z,26.1290,-94.8980,9999.0,11144222 
ADCP,ioos:station:wmo:42390:1,2013-08-08T02:30:00Z,26.1290,-94.8980,9999.0,11144222 
ADCP,ioos:station:wmo:42390:1,2013-08-08T03:30:00Z,26.1290,-94.8980,9999.0,11144222 
ADCP,ioos:station:wmo:42390:1,2013-08-08T04:30:00Z,26.1290,-94.8980,9999.0,11144222 
ADCP,ioos:station:wmo:42390:1,2013-08-08T05:30:00Z,26.1290,-94.8980,9999.0,11144222 
ADCP,ioos:station:wmo:42390:1,2013-08-08T06:30:00Z,26.1290,-94.8980,9999.0,11144222 
ADCP,ioos:station:wmo:42390:1,2013-08-08T07:30:00Z,26.1290,-94.8980,9999.0,11144222 
ADCP,ioos:station:wmo:42390:1,2013-08-08T08:30:00Z,26.1290,-94.8980,9999.0,11144222 
ADCP,ioos:station:wmo:42390:1,2013-08-08T09:30:00Z,26.1290,-94.8980,9999.0,11144222 
ADCP,ioos:station:wmo:42390:1,2013-08-08T10:30:00Z,26.1290,-94.8980,9999.0,11144222 
ADCP,ioos:station:wmo:42390:1,2013-08-08T11:30:00Z,26.1290,-94.8980,9999.0,11144222 
ADCP,ioos:station:wmo:42390:1,2013-08-08T12:30:00Z,26.1290,-94.8980,9999.0,11144222 
ADCP,ioos:station:wmo:42390:1,2013-08-08T13:30:00Z,26.1290,-94.8980,9999.0,11144222 
ADCP,ioos:station:wmo:42390:1,2013-08-08T14:30:00Z,26.1290,-94.8980,9999.0,11144222 
ADCP,ioos:station:wmo:42390:1,2013-08-08T15:30:00Z,26.1290,-94.8980,9999.0,11144222 
ADCP,ioos:station:wmo:42390:1,2013-08-08T16:30:00Z,26.1290,-94.8980,9999.0,11144222 
ADCP,ioos:station:wmo:42390:1,2013-08-08T17:30:00Z,26.1290,-94.8980,9999.0,11144222 
ADCP,ioos:station:wmo:42390:1,2013-08-08T18:30:00Z,26.1290,-94.8980,9999.0,11144222 
ADCP,ioos:station:wmo:42390:1,2013-08-08T19:30:00Z,26.1290,-94.8980,9999.0,11144222 
ADCP,ioos:station:wmo:42390:1,2013-08-08T20:30:00Z,26.1290,-94.8980,9999.0,11144222 
ADCP,ioos:station:wmo:42390:1,2013-08-08T21:30:00Z,26.1290,-94.8980,9999.0,11144222 
ADCP,ioos:station:wmo:42390:1,2013-08-08T22:30:00Z,26.1290,-94.8980,9999.0,11144222 
ADCP,ioos:station:wmo:42390:1,2013-08-08T23:30:00Z,26.1290,-94.8980,9999.0,11144222 
ADCP,ioos:station:wmo:42390:1,2013-08-09T00:30:00Z,26.1290,-94.8980,9999.0,11144222 
ADCP,ioos:station:wmo:42390:1,2013-08-09T01:30:00Z,26.1290,-94.8980,9999.0,11144222 
ADCP,ioos:station:wmo:42390:1,2013-08-09T02:30:00Z,26.1290,-94.8980,9999.0,11144222 
ADCP,ioos:station:wmo:42390:1,2013-08-09T03:30:00Z,26.1290,-94.8980,9999.0,11144222 
ADCP,ioos:station:wmo:42390:1,2013-08-09T04:30:00Z,26.1290,-94.8980,9999.0,11144222 
ADCP,ioos:station:wmo:42390:1,2013-08-09T05:30:00Z,26.1290,-94.8980,9999.0,11144222 
ADCP,ioos:station:wmo:42390:1,2013-08-09T06:30:00Z,26.1290,-94.8980,9999.0,11144222 
ADCP,ioos:station:wmo:42390:1,2013-08-09T07:30:00Z,26.1290,-94.8980,9999.0,11144222 
ADCP,ioos:station:wmo:42390:1,2013-08-09T08:30:00Z,26.1290,-94.8980,9999.0,11144222 
ADCP,ioos:station:wmo:42390:1,2013-08-09T09:30:00Z,26.1290,-94.8980,9999.0,11144222 
ADCP,ioos:station:wmo:42390:1,2013-08-09T10:30:00Z,26.1290,-94.8980,9999.0,11144222 
ADCP,ioos:station:wmo:42390:1,2013-08-09T11:30:00Z,26.1290,-94.8980,9999.0,11144222 
ADCP,ioos:station:wmo:42390:1,2013-08-09T12:30:00Z,26.1290,-94.8980,9999.0,11144222 
ADCP,ioos:station:wmo:42390:1,2013-08-09T13:30:00Z,26.1290,-94.8980,9999.0,11144222 
ADCP,ioos:station:wmo:42390:1,2013-08-09T14:30:00Z,26.1290,-94.8980,9999.0,11144222 
ADCP,ioos:station:wmo:42390:1,2013-08-09T15:30:00Z,26.1290,-94.8980,9999.0,11144222 
ADCP,ioos:station:wmo:42390:1,2013-08-09T16:30:00Z,26.1290,-94.8980,9999.0,11144222 
ADCP,ioos:station:wmo:42390:1,2013-08-09T17:30:00Z,26.1290,-94.8980,9999.0,11144222 
ADCP,ioos:station:wmo:42390:1,2013-08-09T18:30:00Z,26.1290,-94.8980,9999.0,11144222 
ADCP,ioos:station:wmo:42390:1,2013-08-09T19:30:00Z,26.1290,-94.8980,9999.0,11144222 
ADCP,ioos:station:wmo:42390:1,2013-08-09T20:30:00Z,26.1290,-94.8980,9999.0,11144222 
ADCP,ioos:station:wmo:42390:1,2013-08-09T21:30:00Z,26.1290,-94.8980,9999.0,11144222 
ADCP,ioos:station:wmo:42390:1,2013-08-09T22:30:00Z,26.1290,-94.8980,9999.0,11144222 
ADCP,ioos:station:wmo:42390:1,2013-08-09T23:30:00Z,26.1290,-94.8980,9999.0,11144222 
ADCP,ioos:station:wmo:42390:1,2013-08-10T00:30:00Z,26.1290,-94.8980,9999.0,11144222 
ADCP,ioos:station:wmo:42390:1,2013-08-10T01:30:00Z,26.1290,-94.8980,9999.0,11144222 
ADCP,ioos:station:wmo:42390:1,2013-08-10T02:30:00Z,26.1290,-94.8980,9999.0,11144222 
ADCP,ioos:station:wmo:42390:1,2013-08-10T03:30:00Z,26.1290,-94.8980,9999.0,11144222 
ADCP,ioos:station:wmo:42390:1,2013-08-10T04:30:00Z,26.1290,-94.8980,9999.0,11144222 
ADCP,ioos:station:wmo:42390:1,2013-08-10T05:30:00Z,26.1290,-94.8980,9999.0,11144222 
ADCP,ioos:station:wmo:42390:1,2013-08-10T06:30:00Z,26.1290,-94.8980,9999.0,11144222 
ADCP,ioos:station:wmo:42390:1,2013-08-10T07:30:00Z,26.1290,-94.8980,9999.0,11144222 
ADCP,ioos:station:wmo:42390:1,2013-08-10T08:30:00Z,26.1290,-94.8980,9999.0,11144222 
ADCP,ioos:station:wmo:42390:1,2013-08-10T09:30:00Z,26.1290,-94.8980,9999.0,11144222 
ADCP,ioos:station:wmo:42390:1,2013-08-10T10:30:00Z,26.1290,-94.8980,9999.0,11144222 
ADCP,ioos:station:wmo:42390:1,2013-08-10T11:30:00Z,26.1290,-94.8980,9999.0,11144222 
ADCP,ioos:station:wmo:42390:1,2013-08-10T12:30:00Z,26.1290,-94.8980,9999.0,11144222 
ADCP,ioos:station:wmo:42390:1,2013-08-10T13:30:00Z,26.1290,-94.8980,9999.0,11144222 
ADCP,ioos:station:wmo:42390:1,2013-08-10T14:30:00Z,26.1290,-94.8980,9999.0,11144222 
ADCP,ioos:station:wmo:42390:1,2013-08-10T15:30:00Z,26.1290,-94.8980,9999.0,11144222 
ADCP,ioos:station:wmo:42390:1,2013-08-10T16:30:00Z,26.1290,-94.8980,9999.0,11144222 
ADCP,ioos:station:wmo:42390:1,2013-08-10T17:30:00Z,26.1290,-94.8980,9999.0,11144222 
ADCP,ioos:station:wmo:42390:1,2013-08-10T18:30:00Z,26.1290,-94.8980,9999.0,11144222 
ADCP,ioos:station:wmo:42390:1,2013-08-10T19:30:00Z,26.1290,-94.8980,9999.0,11144222 
ADCP,ioos:station:wmo:42390:1,2013-08-10T20:30:00Z,26.1290,-94.8980,9999.0,11144222 
ADCP,ioos:station:wmo:42390:1,2013-08-10T21:30:00Z,26.1290,-94.8980,9999.0,11144222 
ADCP,ioos:station:wmo:42390:1,2013-08-10T22:30:00Z,26.1290,-94.8980,9999.0,11144222 
ADCP,ioos:station:wmo:42390:1,2013-08-10T23:30:00Z,26.1290,-94.8980,9999.0,11144222 
ADCP,ioos:station:wmo:42390:1,2013-08-11T00:30:00Z,26.1290,-94.8980,9999.0,11144222 
ADCP,ioos:station:wmo:42390:1,2013-08-11T01:30:00Z,26.1290,-94.8980,9999.0,11144222 
ADCP,ioos:station:wmo:42390:1,2013-08-11T02:30:00Z,26.1290,-94.8980,9999.0,11144222 
ADCP,ioos:station:wmo:42390:1,2013-08-11T03:30:00Z,26.1290,-94.8980,9999.0,11144222 
ADCP,ioos:station:wmo:42390:1,2013-08-11T04:30:00Z,26.1290,-94.8980,9999.0,11144222 
ADCP,ioos:station:wmo:42390:1,2013-08-11T05:30:00Z,26.1290,-94.8980,9999.0,11144222 
ADCP,ioos:station:wmo:42390:1,2013-08-11T06:30:00Z,26.1290,-94.8980,9999.0,11144222 
ADCP,ioos:station:wmo:42390:1,2013-08-11T07:30:00Z,26.1290,-94.8980,9999.0,11144222 
ADCP,ioos:station:wmo:42390:1,2013-08-11T08:30:00Z,26.1290,-94.8980,9999.0,11144222 
ADCP,ioos:station:wmo:42390:1,2013-08-11T09:30:00Z,26.1290,-94.8980,9999.0,11144222 
ADCP,ioos:station:wmo:42390:1,2013-08-11T10:30:00Z,26.1290,-94.8980,9999.0,11144222 
ADCP,ioos:station:wmo:42390:1,2013-08-11T11:30:00Z,26.1290,-94.8980,9999.0,11144222 
ADCP,ioos:station:wmo:42390:1,2013-08-11T12:30:00Z,26.1290,-94.8980,9999.0,11144222 
ADCP,ioos:station:wmo:42390:1,2013-08-11T13:30:00Z,26.1290,-94.8980,9999.0,11144222 
ADCP,ioos:station:wmo:42390:1,2013-08-11T14:30:00Z,26.1290,-94.8980,9999.0,11144222 
ADCP,ioos:station:wmo:42390:1,2013-08-11T15:30:00Z,26.1290,-94.8980,9999.0,11144222 
ADCP,ioos:station:wmo:42390:1,2013-08-11T16:30:00Z,26.1290,-94.8980,9999.0,11144222 
ADCP,ioos:station:wmo:42390:1,2013-08-11T17:30:00Z,26.1290,-94.8980,9999.0,11144222 
ADCP,ioos:station:wmo:42390:1,2013-08-11T18:30:00Z,26.1290,-94.8980,9999.0,11144222 
ADCP,ioos:station:wmo:42390:1,2013-08-11T19:30:00Z,26.1290,-94.8980,9999.0,11144222 
ADCP,ioos:station:wmo:42390:1,2013-08-11T20:30:00Z,26.1290,-94.8980,9999.0,11144222 
ADCP,ioos:station:wmo:42390:1,2013-08-11T21:30:00Z,26.1290,-94.8980,9999.0,11144222 
ADCP,ioos:station:wmo:42390:1,2013-08-11T22:30:00Z,26.1290,-94.8980,9999.0,11144222 
ADCP,ioos:station:wmo:42390:1,2013-08-11T23:30:00Z,26.1290,-94.8980,9999.0,11144222 
ADCP,ioos:station:wmo:42390:1,2013-08-12T00:30:00Z,26.1290,-94.8980,9999.0,11144222 
ADCP,ioos:station:wmo:42390:1,2013-08-12T01:30:00Z,26.1290,-94.8980,9999.0,11144222 
ADCP,ioos:station:wmo:42390:1,2013-08-12T02:30:00Z,26.1290,-94.8980,9999.0,11144222 
ADCP,ioos:station:wmo:42390:1,2013-08-12T03:30:00Z,26.1290,-94.8980,9999.0,11144222 
ADCP,ioos:station:wmo:42390:1,2013-08-12T04:30:00Z,26.1290,-94.8980,9999.0,11144222 
ADCP,ioos:station:wmo:42390:1,2013-08-12T05:30:00Z,26.1290,-94.8980,9999.0,11144222 
ADCP,ioos:station:wmo:42390:1,2013-08-12T06:30:00Z,26.1290,-94.8980,9999.0,11144222 
ADCP,ioos:station:wmo:42390:1,2013-08-12T07:30:00Z,26.1290,-94.8980,9999.0,11144222 
ADCP,ioos:station:wmo:42390:1,2013-08-12T08:30:00Z,26.1290,-94.8980,9999.0,11144222 
ADCP,ioos:station:wmo:42390:1,2013-08-12T09:30:00Z,26.1290,-94.8980,9999.0,11144222 
ADCP,ioos:station:wmo:42390:1,2013-08-12T10:30:00Z,26.1290,-94.8980,9999.0,11144222 
ADCP,ioos:station:wmo:42390:1,2013-08-12T11:30:00Z,26.1290,-94.8980,9999.0,11144222 
ADCP,ioos:station:wmo:42390:1,2013-08-12T12:30:00Z,26.1290,-94.8980,9999.0,11144222 
ADCP,ioos:station:wmo:42390:1,2013-08-12T13:30:00Z,26.1290,-94.8980,9999.0,11144222 
ADCP,ioos:station:wmo:42390:1,2013-08-12T14:30:00Z,26.1290,-94.8980,9999.0,11144222 
ADCP,ioos:station:wmo:42390:1,2013-08-12T15:30:00Z,26.1290,-94.8980,9999.0,11144222 
ADCP,ioos:station:wmo:42390:1,2013-08-12T16:30:00Z,26.1290,-94.8980,9999.0,11144222 
ADCP,ioos:station:wmo:42390:1,2013-08-12T17:30:00Z,26.1290,-94.8980,9999.0,11144222 
ADCP,ioos:station:wmo:42390:1,2013-08-12T18:30:00Z,26.1290,-94.8980,9999.0,11144222 
ADCP,ioos:station:wmo:42390:1,2013-08-12T19:30:00Z,26.1290,-94.8980,9999.0,11144222 
ADCP,ioos:station:wmo:42390:1,2013-08-12T20:30:00Z,26.1290,-94.8980,9999.0,11144222 
ADCP,ioos:station:wmo:42390:1,2013-08-12T21:30:00Z,26.1290,-94.8980,9999.0,11144222 
ADCP,ioos:station:wmo:42390:1,2013-08-12T22:30:00Z,26.1290,-94.8980,9999.0,11144222 
ADCP,ioos:station:wmo:42390:1,2013-08-12T23:30:00Z,26.1290,-94.8980,9999.0,11144222 
ADCP,ioos:station:wmo:42390:1,2013-08-13T00:30:00Z,26.1290,-94.8980,9999.0,11144222 
ADCP,ioos:station:wmo:42390:1,2013-08-13T01:30:00Z,26.1290,-94.8980,9999.0,11144222 
ADCP,ioos:station:wmo:42390:1,2013-08-13T02:30:00Z,26.1290,-94.8980,9999.0,11144222 
ADCP,ioos:station:wmo:42390:1,2013-08-13T03:30:00Z,26.1290,-94.8980,9999.0,11144222 
ADCP,ioos:station:wmo:42390:1,2013-08-13T04:30:00Z,26.1290,-94.8980,9999.0,11144222 
ADCP,ioos:station:wmo:42390:1,2013-08-13T05:30:00Z,26.1290,-94.8980,9999.0,11144222 
ADCP,ioos:station:wmo:42390:1,2013-08-13T06:30:00Z,26.1290,-94.8980,9999.0,11144222 
ADCP,ioos:station:wmo:42390:1,2013-08-13T07:30:00Z,26.1290,-94.8980,9999.0,11144222 
ADCP,ioos:station:wmo:42390:1,2013-08-13T08:30:00Z,26.1290,-94.8980,9999.0,11144222 
ADCP,ioos:station:wmo:42390:1,2013-08-13T09:30:00Z,26.1290,-94.8980,9999.0,11144222 
ADCP,ioos:station:wmo:42390:1,2013-08-13T10:30:00Z,26.1290,-94.8980,9999.0,11144222 
ADCP,ioos:station:wmo:42390:1,2013-08-13T11:30:00Z,26.1290,-94.8980,9999.0,11144222 
ADCP,ioos:station:wmo:42390:1,2013-08-13T12:30:00Z,26.1290,-94.8980,9999.0,11144222 
ADCP,ioos:station:wmo:42390:1,2013-08-13T13:30:00Z,26.1290,-94.8980,9999.0,11144222 
ADCP,ioos:station:wmo:42390:1,2013-08-13T14:30:00Z,26.1290,-94.8980,9999.0,11144222 
ADCP,ioos:station:wmo:42390:1,2013-08-13T15:30:00Z,26.1290,-94.8980,9999.0,11144222 
ADCP,ioos:station:wmo:42390:1,2013-08-13T16:30:00Z,26.1290,-94.8980,9999.0,11144222 
ADCP,ioos:station:wmo:42390:1,2013-08-13T17:30:00Z,26.1290,-94.8980,9999.0,11144222 
ADCP,ioos:station:wmo:42390:1,2013-08-13T18:30:00Z,26.1290,-94.8980,9999.0,11144222 
ADCP,ioos:station:wmo:42390:1,2013-08-13T19:30:00Z,26.1290,-94.8980,9999.0,11144222 
ADCP,ioos:station:wmo:42390:1,2013-08-13T20:30:00Z,26.1290,-94.8980,9999.0,11144222 
ADCP,ioos:station:wmo:42390:1,2013-08-13T21:30:00Z,26.1290,-94.8980,9999.0,11144222 
ADCP,ioos:station:wmo:42390:1,2013-08-13T22:30:00Z,26.1290,-94.8980,1014.6,11111222 
ADCP,ioos:station:wmo:42390:1,2013-08-13T23:30:00Z,26.1290,-94.8980,1014.2,11111222 
ADCP,ioos:station:wmo:42390:1,2013-08-14T00:30:00Z,26.1290,-94.8980,1014.2,11111222 
ADCP,ioos:station:wmo:42390:1,2013-08-14T01:30:00Z,26.1290,-94.8980,1015.2,11111222 
ADCP,ioos:station:wmo:42390:1,2013-08-14T02:30:00Z,26.1290,-94.8980,1015.6,11111222 
ADCP,ioos:station:wmo:42390:1,2013-08-14T03:30:00Z,26.1290,-94.8980,1015.6,11111222 
ADCP,ioos:station:wmo:42390:1,2013-08-14T04:30:00Z,26.1290,-94.8980,1015.6,11111222 
ADCP,ioos:station:wmo:42390:1,2013-08-14T05:30:00Z,26.1290,-94.8980,1015.2,11111222 
ADCP,ioos:station:wmo:42390:1,2013-08-14T06:30:00Z,26.1290,-94.8980,1014.9,11111222 
ADCP,ioos:station:wmo:42390:1,2013-08-14T07:30:00Z,26.1290,-94.8980,1014.6,11111222 
ADCP,ioos:station:wmo:42390:1,2013-08-14T08:30:00Z,26.1290,-94.8980,1014.6,11111222 
ADCP,ioos:station:wmo:42390:1,2013-08-14T09:30:00Z,26.1290,-94.8980,1014.2,11111222 
ADCP,ioos:station:wmo:42390:1,2013-08-14T10:30:00Z,26.1290,-94.8980,1014.6,11111222 
ADCP,ioos:station:wmo:42390:1,2013-08-14T11:30:00Z,26.1290,-94.8980,1014.2,11111222 
ADCP,ioos:station:wmo:42390:1,2013-08-14T12:30:00Z,26.1290,-94.8980,1014.9,11111222 
ADCP,ioos:station:wmo:42390:1,2013-08-14T13:30:00Z,26.1290,-94.8980,1014.9,11111222 
ADCP,ioos:station:wmo:42390:1,2013-08-14T14:30:00Z,26.1290,-94.8980,1015.2,11111222 
ADCP,ioos:station:wmo:42390:1,2013-08-14T15:30:00Z,26.1290,-94.8980,1015.6,11111222 
ADCP,ioos:station:wmo:42390:1,2013-08-14T16:30:00Z,26.1290,-94.8980,1015.9,11111222 
ADCP,ioos:station:wmo:42390:1,2013-08-14T17:30:00Z,26.1290,-94.8980,1015.6,11111222 
ADCP,ioos:station:wmo:42390:1,2013-08-14T18:30:00Z,26.1290,-94.8980,1014.9,11111222 
ADCP,ioos:station:wmo:42390:1,2013-08-14T19:30:00Z,26.1290,-94.8980,1014.6,11111222 
ADCP,ioos:station:wmo:42390:1,2013-08-14T20:30:00Z,26.1290,-94.8980,1014.2,11111222 
ADCP,ioos:station:wmo:42390:1,2013-08-14T21:30:00Z,26.1290,-94.8980,1014.2,11111222 
ADCP,ioos:station:wmo:42390:1,2013-08-14T22:30:00Z,26.1290,-94.8980,1014.2,11111222 
ADCP,ioos:station:wmo:42390:1,2013-08-14T23:30:00Z,26.1290,-94.8980,1013.9,11111222 
ADCP,ioos:station:wmo:42390:1,2013-08-15T00:30:00Z,26.1290,-94.8980,1013.9,11111222 
ADCP,ioos:station:wmo:42390:1,2013-08-15T01:30:00Z,26.1290,-94.8980,1014.2,11111222 
ADCP,ioos:station:wmo:42390:1,2013-08-15T02:30:00Z,26.1290,-94.8980,1014.2,11111222 
ADCP,ioos:station:wmo:42390:1,2013-08-15T03:30:00Z,26.1290,-94.8980,1015.6,11111222 
ADCP,ioos:station:wmo:42390:1,2013-08-15T04:30:00Z,26.1290,-94.8980,1015.2,11111222 
ADCP,ioos:station:wmo:42390:1,2013-08-15T05:30:00Z,26.1290,-94.8980,1014.6,11111222 
ADCP,ioos:station:wmo:42390:1,2013-08-15T06:30:00Z,26.1290,-94.8980,1013.9,11111222 
ADCP,ioos:station:wmo:42390:1,2013-08-15T07:30:00Z,26.1290,-94.8980,1013.5,11111222 
ADCP,ioos:station:wmo:42390:1,2013-08-15T08:30:00Z,26.1290,-94.8980,1013.2,11111222 
ADCP,ioos:station:wmo:42390:1,2013-08-15T09:30:00Z,26.1290,-94.8980,1012.9,11111222 
ADCP,ioos:station:wmo:42390:1,2013-08-15T10:30:00Z,26.1290,-94.8980,1013.2,11111222 
ADCP,ioos:station:wmo:42390:1,2013-08-15T11:30:00Z,26.1290,-94.8980,1013.5,11111222 
ADCP,ioos:station:wmo:42390:1,2013-08-15T12:30:00Z,26.1290,-94.8980,1014.2,11111222 
ADCP,ioos:station:wmo:42390:1,2013-08-15T13:30:00Z,26.1290,-94.8980,1014.6,11111222 
ADCP,ioos:station:wmo:42390:1,2013-08-15T14:30:00Z,26.1290,-94.8980,1015.2,11111222 
ADCP,ioos:station:wmo:42390:1,2013-08-15T15:30:00Z,26.1290,-94.8980,1015.2,11111222 
ADCP,ioos:station:wmo:42390:1,2013-08-15T16:30:00Z,26.1290,-94.8980,1015.2,11111222 
ADCP,ioos:station:wmo:42390:1,2013-08-15T17:30:00Z,26.1290,-94.8980,1015.2,11111222 
ADCP,ioos:station:wmo:42390:1,2013-08-15T18:30:00Z,26.1290,-94.8980,1014.9,11111222 
ADCP,ioos:station:wmo:42390:1,2013-08-15T19:30:00Z,26.1290,-94.8980,1014.6,11111222 
ADCP,ioos:station:wmo:42390:1,2013-08-15T20:30:00Z,26.1290,-94.8980,1014.2,11111222 
ADCP,ioos:station:wmo:42390:1,2013-08-15T21:30:00Z,26.1290,-94.8980,1013.9,11111222 
ADCP,ioos:station:wmo:42390:1,2013-08-15T22:30:00Z,26.1290,-94.8980,1013.9,11111222 
ADCP,ioos:station:wmo:42390:1,2013-08-15T23:30:00Z,26.1290,-94.8980,1013.5,11111222 
ADCP,ioos:station:wmo:42390:1,2013-08-16T00:30:00Z,26.1290,-94.8980,1014.2,11111222 
ADCP,ioos:station:wmo:42390:1,2013-08-16T01:30:00Z,26.1290,-94.8980,1014.2,11111222 
ADCP,ioos:station:wmo:42390:1,2013-08-16T02:30:00Z,26.1290,-94.8980,1014.6,11111222 
ADCP,ioos:station:wmo:42390:1,2013-08-16T03:30:00Z,26.1290,-94.8980,1014.6,11111222 
ADCP,ioos:station:wmo:42390:1,2013-08-16T04:30:00Z,26.1290,-94.8980,1014.6,11111222 
ADCP,ioos:station:wmo:42390:1,2013-08-16T05:30:00Z,26.1290,-94.8980,1014.6,11111222 
ADCP,ioos:station:wmo:42390:1,2013-08-16T06:30:00Z,26.1290,-94.8980,1014.2,11111222 
ADCP,ioos:station:wmo:42390:1,2013-08-16T07:30:00Z,26.1290,-94.8980,1013.9,11111222 
ADCP,ioos:station:wmo:42390:1,2013-08-16T08:30:00Z,26.1290,-94.8980,1013.9,11111222 
ADCP,ioos:station:wmo:42390:1,2013-08-16T09:30:00Z,26.1290,-94.8980,1013.2,11111222 
ADCP,ioos:station:wmo:42390:1,2013-08-16T10:30:00Z,26.1290,-94.8980,1013.5,11111222 
ADCP,ioos:station:wmo:42390:1,2013-08-16T11:30:00Z,26.1290,-94.8980,1013.2,11111222 
ADCP,ioos:station:wmo:42390:1,2013-08-16T12:30:00Z,26.1290,-94.8980,1013.5,11111222 
ADCP,ioos:station:wmo:42390:1,2013-08-16T13:30:00Z,26.1290,-94.8980,1014.2,11111222 
ADCP,ioos:station:wmo:42390:1,2013-08-16T14:30:00Z,26.1290,-94.8980,1014.6,11111222 
ADCP,ioos:station:wmo:42390:1,2013-08-16T15:30:00Z,26.1290,-94.8980,1014.9,11111222 
ADCP,ioos:station:wmo:42390:1,2013-08-16T16:30:00Z,26.1290,-94.8980,1014.9,11111222 